Gold Country Challenge - Loft Flight

Station: Loft Fly Inventory - T Race

Distance: 10 Miles

Release: 01-Aug-2020 07:00

Weather Release: Warm Morning    Arrival: Hot Today

Wind at Release:     Wind at Arrival:

Temp at Release: °    Temp at Arrival: °

Lofts: 106

Birds: 424

Clocked: 422

Regular loft flight today. Very hot today highs near 100
Drops Pos Breeder Pigeon Name Color Sex Ent Arrival Speed To Win Elg PdChamp
1 Stark Loft - CA 2005-AU20-HANG Ruby Red RDST H 1 07:49:18.80 356.901 00:00:00 Yes
2 Denis Eastwood - CA 2102-AU20-HANG SLT H 1 07:50:01.30 351.848 00:00:42 Yes
3 Marengo Creek Farms - AL 3524-AU20-MCF BB H 1 07:50:10.20 350.807 00:00:51 Yes
4 Kereru Whare - CA 1125-AU20-FSC BB H 1 07:51:00.20 345.075 00:01:41 Yes
5 Peters - GA 0029-AU20-PETE BLACK JACK DC H 1 07:52:05.40 337.877 00:02:47 Yes
6 B S Lofts - CA 13307-AU20-JEDD 3057 & 877 BB H 1 07:52:33.00 334.919 00:03:14 Yes
7 Valhalla Loft - CA 2025-AU20-WSJ BBWF H 1 07:52:50.30 333.092 00:03:31 Yes
8 Perfection Loft - KS 13049-AU20-AA BBWF H 1 07:53:06.90 331.356 00:03:48 Yes
9 Marengo Creek Farms - AL 3538-AU20-MCF BB H 2 07:53:37.70 328.185 00:04:19 Yes
10 Skylinerpl.Com - UT 35792-AU20-JEDD "Geerinckx Best" SLTS H 1 07:53:38.30 328.124 00:04:19 Yes
11 John Hedderson - CA 0033-AU20-HEDD 801x8002 BB H 1 07:53:46.80 327.259 00:04:28 Yes
12 Do Drop In Loft - NC 0052-IF20-TRC Lickety Split BB H 1 07:53:51.50 326.783 00:04:33 Yes
13 John Hedderson - CA 0032-AU20-HEDD 6855x6853a BC H 2 07:54:26.00 323.331 00:05:07 Yes
14 Allison Ranch - CA 1155-AU20-FSC PIED H 1 07:54:42.30 321.726 00:05:23 Yes
15 Bieu Tran - CA 0061-AU20-HJ BC H 1 07:54:49.10 321.060 00:05:30 Yes
16 Goshentown Lofts - TN 8901-AU20-NASH BC H 1 07:55:15.40 318.514 00:05:57 Yes
17 Oddiebeng Loft - CA 9669-AU20-FOYS BC H 1 07:56:05.60 313.763 00:06:47 Yes
18 Partridge Family Loft - CA 2226-AU20-PASO BCWF H 1 07:56:26.00 311.872 00:07:07 Yes
19 Dan & Greg Coury - AZ 0501-AU20-AONE BB H 1 07:56:37.50 310.817 00:07:19 Yes
20 Rodriguez Loft - TX 5442-AU20-JEDD AIC-DARK HORSE BB H 1 07:56:40.90 310.506 00:07:22 Yes
21 John & Omelio - NM 20063-AU20-NMRP BC H 1 07:56:47.80 309.877 00:07:29 Yes
22 Bieu Tran - CA 0013-AU20-TRAN BB H 2 07:57:01.90 308.600 00:07:43 Yes
23 Gomez Loft - CA 2631-AU20-CHP BBWF H 1 07:57:27.20 306.336 00:08:08 Yes
24 Hayloft - CA 0191-AU20-GSF BC H 1 07:57:33.20 305.803 00:08:14 Yes
25 Double J Loft Of Tx. - TX 0105-AU20-WACO 263 X 1611 BC H 1 07:57:54.70 303.911 00:08:36 Yes
26 Genesis Syndicate Loft - AZ 0554-AU20-GENS DCSP H 1 07:57:56.00 303.797 00:08:37 Yes
27 Loft By Augustine - KS 0121-AU20-SWK BBWF H 1 07:58:01.30 303.335 00:08:42 Yes
28 PNWC - ID 0042-AU20-PNWC Pair# 19 BBWF H 1 07:58:08.80 302.683 00:08:50 Yes
29 Kereru Whare - CA 1142-AU20-FSC BC H 2 07:58:25.30 301.258 00:09:06 Yes
30 Dan & Greg Coury - AZ 0550-AU20-AONE BB H 2 07:58:27.70 301.052 00:09:09 Yes
31 Emmalyn & Carelyn Loft - CA 0708-AU20-CEYX BB H 1 07:58:32.50 300.641 00:09:14 Yes
32 White Arrow Loft - IL 0559-AU20-LCC MYPD H 1 08:00:17.80 291.890 00:10:59 Yes
33 D J's Loft Of Ca - CA 1800-AU20-FSC BB H 1 08:00:30.00 290.909 00:11:11 Yes
34 Double J Loft Of Tx. - TX 0106-AU20-WACO 263 X 1611 BC H 2 08:00:50.80 289.252 00:11:32 Yes
35 Crazy Al & Chris Melucci - CO 5711-AU20-CRAZ BCSP H 1 08:01:11.70 287.605 00:11:53 Yes
36 Marengo Creek Farms - AL 3505-AU20-MCF SLWS H 3 08:01:15.40 287.316 00:11:57 Yes
37 Marengo Creek Farms - AL 3541-AU20-MCF BB H 4 08:01:43.30 285.151 00:12:24 Yes
38 Jamie Bertero - CA 0852-AU20-ML SMKW H 1 08:01:49.10 284.705 00:12:30 Yes
39 Callahan Loft - MO 0957-AU20-AA DC H 1 08:02:00.20 283.856 00:12:41 Yes
40 Al Shulman - CA 2121-AU20-WSJ PIED H 1 08:02:38.20 280.986 00:13:19 Yes
41 Bieche-Stevenson - CA 0297-AU20-BIE BB H 1 08:02:53.70 279.831 00:13:35 Yes
42 Wonderwings Lofts - CA 2040-AU20-MAN Lightning BBWF H 1 08:04:22.60 273.391 00:15:04 Yes
43 G & J Lofts - CA 0078-AU20-GJ Checker Out BC H 1 08:04:25.40 273.193 00:15:07 Inj
44 Tapia Lofts - NM 21294-CU20-OSH 18003/902 BBSP H 1 08:04:34.00 272.586 00:15:15 Yes
45 Goshentown Lofts - TN 8903-AU20-NASH BC H 2 08:04:37.80 272.319 00:15:19 Yes
46 Kirsch Boys - OH 3202-AU20-VITA DCWF H 1 08:04:40.90 272.102 00:15:22 Yes
47 Euro Dead - CA 29158-AU20-JEDD C-232 A-168 BB H 1 08:04:48.10 271.598 00:15:29 Yes
48 H & H Flying Circus - CA 0305-AU20-ML BC H 1 08:05:05.90 270.360 00:15:47 Yes
49 Loft By Augustine - KS 0114-AU20-SWK BKSP H 2 08:05:09.50 270.111 00:15:51 Yes
50 F-R-E-L Syndicate - CA 16905-AU20-JEDD BB H 1 08:05:12.30 269.918 00:15:53 Yes
51 Allison Ranch - CA 1154-AU20-FSC MLY H 2 08:05:13.80 269.815 00:15:55 Yes
52 John Gutierrez - NM 0244-AU20-GUTZ Perf/104 BB H 1 08:05:23.10 269.175 00:16:04 Yes
53 Racing Pigeon Mall - WA 1008-AU20-RPM BB H 1 08:05:33.50 268.463 00:16:15 Missing
54 Denis Eastwood - CA 2109-AU20-HANG BB H 2 08:05:35.50 268.327 00:16:17 Yes
55 House Of Paine - CA 0228-AU20-HOP 779x1196 DC H 1 08:05:42.40 267.857 00:16:24 Yes
56 Stelling Loft - NM 0074-AU20-JHS BB H 1 08:05:42.60 267.844 00:16:24 Yes
57 Sugaronni Loft - CA 25500-AU20-FOYS BB H 1 08:05:48.60 267.437 00:16:30 Yes
58 Bieu Tran - CA 0014-AU20-TRAN BBSP H 3 08:05:49.90 267.349 00:16:31 Lost
59 F-R-E-L Syndicate - CA 7016-AU20-AA BB H 2 08:06:09.20 266.049 00:16:50 Yes
60 Tapia Lofts - NM 4022-AU20-VITA 371/979 BB H 2 08:06:17.10 265.520 00:16:58 Yes
61 Callahan Loft - MO 0929-AU20-AA RGRZ H 2 08:06:23.70 265.080 00:17:05 Yes
62 Kereru Whare - CA 1141-AU20-FSC PIED H 3 08:06:30.20 264.648 00:17:11 Yes
63 Kereru Whare - CA 1103-AU20-FSC BC H 4 08:06:42.60 263.829 00:17:24 Yes
64 Al Shulman - CA 2149-AU20-WSJ BCWF H 2 08:06:45.30 263.651 00:17:26 Yes
65 White Arrow Loft - IL 0567-AU20-LCC BB H 2 08:07:06.80 262.243 00:17:48 Yes
66 B S Lofts - CA 13320-AU20-JEDD 127 & 1950 BBWF H 2 08:07:10.90 261.976 00:17:52 Yes
67 John & Omelio - NM 20758-AU20-NMRP BB H 2 08:07:12.90 261.846 00:17:54 Yes
68 G & J Lofts - CA 0113-AU20-GJ Check Please! BC C 2 08:07:21.10 261.315 00:18:02 Yes
69 PNWC - ID 0034-AU20-PNWC Pair# 7 BBWF H 2 08:07:36.20 260.342 00:18:17 Yes
70 Stark Loft - CA 2010-AU20-HANG Prospector BBSP C 2 08:08:11.20 258.115 00:18:52 Yes
71 House Of Paine - CA 0245-AU20-HOP 178x276 BC H 2 08:08:55.20 255.369 00:19:36 Yes
72 Winwin Loft - CA 7304-AU20-JEDD BB H 1 08:09:11.60 254.360 00:19:53 Yes
73 Sports House Pigeons - CA 5501-AU20-JEDD BB H 1 08:09:58.40 251.524 00:20:40 Yes
74 Oddiebeng Loft - CA 28647-AU20-FOYS BC H 2 08:09:59.10 251.482 00:20:40 Yes
75 Gomez Loft - CA 2641-AU20-CHP BB H 2 08:10:42.00 248.939 00:21:23 Yes
76 American Star Racing Pigeons - CA 0115-AU20-ASTR BB H 1 08:10:43.50 248.851 00:21:25 Yes
77 Oddiebeng Loft - CA 9670-AU20-FOYS DC H 3 08:10:44.00 248.822 00:21:25 Yes
78 F-R-E-L Syndicate - CA 16303-AU20-AA BC H 3 08:10:59.80 247.899 00:21:41 Yes
79 Winwin Loft - CA 7301-AU20-JEDD BC H 2 08:11:05.30 247.579 00:21:47 Yes
80 Bieche-Stevenson - CA 0267-AU20-BIE DC H 2 08:11:07.20 247.469 00:21:48 Yes
81 Wonderwings Lofts - CA 1905-AU20-MAN Golden Challenger SBB H 2 08:11:08.50 247.394 00:21:50 Yes
82 B S Lofts - CA 13318-AU20-JEDD 807 & 906 BB H 3 08:11:30.60 246.119 00:22:12 Yes
83 Scm Lofts - CA 24655-AU20-JEDD BCWF H 1 08:11:54.60 244.750 00:22:36 Yes
84 Pellizzari Loft - CA 1003-AU20-WSJ BC H 1 08:12:13.50 243.683 00:22:55 Yes
85 Skylinerpl.Com - UT 35819-AU20-JEDD "Troy's Girl" SLTW H 2 08:12:23.70 243.111 00:23:05 Yes
86 Tapia Lofts - NM 21296-CU20-OSH 17055/18080 BBSP H 3 08:12:25.70 242.999 00:23:07 Yes
87 Igor & Sons Loft - OR 0228-AU20-OTC BC H 1 08:12:28.80 242.826 00:23:10 Yes
88 R & D Racing 2 - ON 4407-AU20-AA BC H 1 08:12:43.80 241.991 00:23:25 Yes
89 Scm Lofts - CA 24653-AU20-JEDD BC H 2 08:12:51.90 241.543 00:23:33 Yes
90 Crazy Al & Chris Melucci - CO 15706-AU20-AA BC H 2 08:13:09.50 240.574 00:23:51 Yes
91 A P C Loft - TX 20082-AU20-APC BB H 1 08:13:21.40 239.924 00:24:03 Yes
92 Bieche-Stevenson - CA 0242-AU20-BIE BC H 3 08:13:28.70 239.526 00:24:10 Yes
93 Sierra Ranch - CA 0247-AU20-SR Pot of gold BCWF H 1 08:13:34.00 239.239 00:24:15 Yes
94 PNWC - ID 0038-AU20-PNWC Pair# 33 BB H 3 08:13:37.00 239.076 00:24:18 Yes
95 John Gutierrez - NM 0229-AU20-GUTZ 931/Dyk BBSP H 2 08:13:44.50 238.671 00:24:26 Yes
96 Partridge Family Loft - CA 2227-AU20-PASO BC H 2 08:13:49.80 238.385 00:24:31 Yes
97 Perfection Loft - KS 13050-AU20-AA BB H 2 08:14:07.30 237.447 00:24:49 Yes
98 Bieu Tran - CA 0012-AU20-TRAN BB H 4 08:14:10.90 237.255 00:24:52 Yes
99 Jim Cain - CA 3243-AU20-FSC BB H 1 08:14:14.10 237.085 00:24:55 Yes
100 Dads Loft - CA 20306-AU20-LAKE SILV H 1 08:14:27.60 236.369 00:25:09 Yes

There are 412 bird records

Note: These Race Results are unofficial and subject to change until verified by the Race Committee and declared final.